Index of /20260426/WXO-DD/model_rdps/10km/06/077
Name Last modified Size Description
Parent Directory -
20260426T06Z_MSC_RDPS_AbsoluteVorticity_IsbL-0250_RLatLon0.09_PT077H.grib2 2026-04-26 09:02 635K
20260426T06Z_MSC_RDPS_AbsoluteVorticity_IsbL-0500_RLatLon0.09_PT077H.grib2 2026-04-26 09:02 571K
20260426T06Z_MSC_RDPS_AbsoluteVorticity_IsbL-0700_RLatLon0.09_PT077H.grib2 2026-04-26 09:02 613K
20260426T06Z_MSC_RDPS_AbsoluteVorticity_IsbL-0850_RLatLon0.09_PT077H.grib2 2026-04-26 09:02 774K
20260426T06Z_MSC_RDPS_AirTemp_AGL-120m_RLatLon0.09_PT077H.grib2 2026-04-26 09:02 375K
20260426T06Z_MSC_RDPS_AirTemp_AGL-2m_RLatLon0.09_PT077H.grib2 2026-04-26 09:02 631K
20260426T06Z_MSC_RDPS_AirTemp_AGL-40m_RLatLon0.09_PT077H.grib2 2026-04-26 09:02 392K
20260426T06Z_MSC_RDPS_AirTemp_AGL-80m_RLatLon0.09_PT077H.grib2 2026-04-26 09:02 383K
20260426T06Z_MSC_RDPS_AirTemp_IsbL-0001_RLatLon0.09_PT077H.grib2 2026-04-26 09:02 261K
20260426T06Z_MSC_RDPS_AirTemp_IsbL-0005_RLatLon0.09_PT077H.grib2 2026-04-26 09:02 297K
20260426T06Z_MSC_RDPS_AirTemp_IsbL-0010_RLatLon0.09_PT077H.grib2 2026-04-26 09:02 308K
20260426T06Z_MSC_RDPS_AirTemp_IsbL-0020_RLatLon0.09_PT077H.grib2 2026-04-26 09:02 322K
20260426T06Z_MSC_RDPS_AirTemp_IsbL-0030_RLatLon0.09_PT077H.grib2 2026-04-26 09:02 341K
20260426T06Z_MSC_RDPS_AirTemp_IsbL-0050_RLatLon0.09_PT077H.grib2 2026-04-26 09:02 319K
20260426T06Z_MSC_RDPS_AirTemp_IsbL-0100_RLatLon0.09_PT077H.grib2 2026-04-26 09:02 431K
20260426T06Z_MSC_RDPS_AirTemp_IsbL-0150_RLatLon0.09_PT077H.grib2 2026-04-26 09:02 428K
20260426T06Z_MSC_RDPS_AirTemp_IsbL-0175_RLatLon0.09_PT077H.grib2 2026-04-26 09:02 417K
20260426T06Z_MSC_RDPS_AirTemp_IsbL-0200_RLatLon0.09_PT077H.grib2 2026-04-26 09:02 423K
20260426T06Z_MSC_RDPS_AirTemp_IsbL-0225_RLatLon0.09_PT077H.grib2 2026-04-26 09:02 424K
20260426T06Z_MSC_RDPS_AirTemp_IsbL-0250_RLatLon0.09_PT077H.grib2 2026-04-26 09:02 433K
20260426T06Z_MSC_RDPS_AirTemp_IsbL-0275_RLatLon0.09_PT077H.grib2 2026-04-26 09:02 414K
20260426T06Z_MSC_RDPS_AirTemp_IsbL-0300_RLatLon0.09_PT077H.grib2 2026-04-26 09:02 420K
20260426T06Z_MSC_RDPS_AirTemp_IsbL-0350_RLatLon0.09_PT077H.grib2 2026-04-26 09:02 430K
20260426T06Z_MSC_RDPS_AirTemp_IsbL-0400_RLatLon0.09_PT077H.grib2 2026-04-26 09:02 429K
20260426T06Z_MSC_RDPS_AirTemp_IsbL-0450_RLatLon0.09_PT077H.grib2 2026-04-26 09:02 398K
20260426T06Z_MSC_RDPS_AirTemp_IsbL-0500_RLatLon0.09_PT077H.grib2 2026-04-26 09:02 408K
20260426T06Z_MSC_RDPS_AirTemp_IsbL-0550_RLatLon0.09_PT077H.grib2 2026-04-26 09:02 422K
20260426T06Z_MSC_RDPS_AirTemp_IsbL-0600_RLatLon0.09_PT077H.grib2 2026-04-26 09:02 440K
20260426T06Z_MSC_RDPS_AirTemp_IsbL-0650_RLatLon0.09_PT077H.grib2 2026-04-26 09:02 453K
20260426T06Z_MSC_RDPS_AirTemp_IsbL-0700_RLatLon0.09_PT077H.grib2 2026-04-26 09:02 477K
20260426T06Z_MSC_RDPS_AirTemp_IsbL-0750_RLatLon0.09_PT077H.grib2 2026-04-26 09:02 404K
20260426T06Z_MSC_RDPS_AirTemp_IsbL-0800_RLatLon0.09_PT077H.grib2 2026-04-26 09:02 451K
20260426T06Z_MSC_RDPS_AirTemp_IsbL-0850_RLatLon0.09_PT077H.grib2 2026-04-26 09:02 508K
20260426T06Z_MSC_RDPS_AirTemp_IsbL-0875_RLatLon0.09_PT077H.grib2 2026-04-26 09:02 525K
20260426T06Z_MSC_RDPS_AirTemp_IsbL-0900_RLatLon0.09_PT077H.grib2 2026-04-26 09:02 532K
20260426T06Z_MSC_RDPS_AirTemp_IsbL-0925_RLatLon0.09_PT077H.grib2 2026-04-26 09:02 526K
20260426T06Z_MSC_RDPS_AirTemp_IsbL-0950_RLatLon0.09_PT077H.grib2 2026-04-26 09:02 527K
20260426T06Z_MSC_RDPS_AirTemp_IsbL-0970_RLatLon0.09_PT077H.grib2 2026-04-26 09:02 518K
20260426T06Z_MSC_RDPS_AirTemp_IsbL-0985_RLatLon0.09_PT077H.grib2 2026-04-26 09:02 505K
20260426T06Z_MSC_RDPS_AirTemp_IsbL-1000_RLatLon0.09_PT077H.grib2 2026-04-26 09:02 488K
20260426T06Z_MSC_RDPS_AirTemp_IsbL-1015_RLatLon0.09_PT077H.grib2 2026-04-26 09:02 486K
20260426T06Z_MSC_RDPS_Albedo_Sfc_RLatLon0.09_PT077H.grib2 2026-04-26 09:02 157K
20260426T06Z_MSC_RDPS_CAPE_Sfc_RLatLon0.09_PT077H.grib2 2026-04-26 09:02 1.5M
20260426T06Z_MSC_RDPS_CIN_Sfc_RLatLon0.09_PT077H.grib2 2026-04-26 09:02 1.0M
20260426T06Z_MSC_RDPS_CloudWater_EAtm_RLatLon0.09_PT077H.grib2 2026-04-26 09:02 218K
20260426T06Z_MSC_RDPS_ConvectivePrecip-Accum_Sfc_RLatLon0.09_PT077H.grib2 2026-04-26 09:02 1.3M
20260426T06Z_MSC_RDPS_DewPointDepression_AGL-2m_RLatLon0.09_PT077H.grib2 2026-04-26 09:02 390K
20260426T06Z_MSC_RDPS_DewPointDepression_IsbL-0001_RLatLon0.09_PT077H.grib2 2026-04-26 09:02 193
20260426T06Z_MSC_RDPS_DewPointDepression_IsbL-0005_RLatLon0.09_PT077H.grib2 2026-04-26 09:02 193
20260426T06Z_MSC_RDPS_DewPointDepression_IsbL-0010_RLatLon0.09_PT077H.grib2 2026-04-26 09:02 193
20260426T06Z_MSC_RDPS_DewPointDepression_IsbL-0020_RLatLon0.09_PT077H.grib2 2026-04-26 09:02 193
20260426T06Z_MSC_RDPS_DewPointDepression_IsbL-0030_RLatLon0.09_PT077H.grib2 2026-04-26 09:02 193
20260426T06Z_MSC_RDPS_DewPointDepression_IsbL-0050_RLatLon0.09_PT077H.grib2 2026-04-26 09:02 86K
20260426T06Z_MSC_RDPS_DewPointDepression_IsbL-0100_RLatLon0.09_PT077H.grib2 2026-04-26 09:02 130K
20260426T06Z_MSC_RDPS_DewPointDepression_IsbL-0150_RLatLon0.09_PT077H.grib2 2026-04-26 09:02 146K
20260426T06Z_MSC_RDPS_DewPointDepression_IsbL-0175_RLatLon0.09_PT077H.grib2 2026-04-26 09:02 177K
20260426T06Z_MSC_RDPS_DewPointDepression_IsbL-0200_RLatLon0.09_PT077H.grib2 2026-04-26 09:02 216K
20260426T06Z_MSC_RDPS_DewPointDepression_IsbL-0225_RLatLon0.09_PT077H.grib2 2026-04-26 09:02 265K
20260426T06Z_MSC_RDPS_DewPointDepression_IsbL-0250_RLatLon0.09_PT077H.grib2 2026-04-26 09:02 300K
20260426T06Z_MSC_RDPS_DewPointDepression_IsbL-0275_RLatLon0.09_PT077H.grib2 2026-04-26 09:02 307K
20260426T06Z_MSC_RDPS_DewPointDepression_IsbL-0300_RLatLon0.09_PT077H.grib2 2026-04-26 09:02 324K
20260426T06Z_MSC_RDPS_DewPointDepression_IsbL-0350_RLatLon0.09_PT077H.grib2 2026-04-26 09:02 328K
20260426T06Z_MSC_RDPS_DewPointDepression_IsbL-0400_RLatLon0.09_PT077H.grib2 2026-04-26 09:02 338K
20260426T06Z_MSC_RDPS_DewPointDepression_IsbL-0450_RLatLon0.09_PT077H.grib2 2026-04-26 09:02 343K
20260426T06Z_MSC_RDPS_DewPointDepression_IsbL-0500_RLatLon0.09_PT077H.grib2 2026-04-26 09:02 350K
20260426T06Z_MSC_RDPS_DewPointDepression_IsbL-0550_RLatLon0.09_PT077H.grib2 2026-04-26 09:02 359K
20260426T06Z_MSC_RDPS_DewPointDepression_IsbL-0600_RLatLon0.09_PT077H.grib2 2026-04-26 09:02 367K
20260426T06Z_MSC_RDPS_DewPointDepression_IsbL-0650_RLatLon0.09_PT077H.grib2 2026-04-26 09:02 375K
20260426T06Z_MSC_RDPS_DewPointDepression_IsbL-0700_RLatLon0.09_PT077H.grib2 2026-04-26 09:02 386K
20260426T06Z_MSC_RDPS_DewPointDepression_IsbL-0750_RLatLon0.09_PT077H.grib2 2026-04-26 09:02 408K
20260426T06Z_MSC_RDPS_DewPointDepression_IsbL-0800_RLatLon0.09_PT077H.grib2 2026-04-26 09:02 440K
20260426T06Z_MSC_RDPS_DewPointDepression_IsbL-0850_RLatLon0.09_PT077H.grib2 2026-04-26 09:02 468K
20260426T06Z_MSC_RDPS_DewPointDepression_IsbL-0875_RLatLon0.09_PT077H.grib2 2026-04-26 09:02 469K
20260426T06Z_MSC_RDPS_DewPointDepression_IsbL-0900_RLatLon0.09_PT077H.grib2 2026-04-26 09:02 461K
20260426T06Z_MSC_RDPS_DewPointDepression_IsbL-0925_RLatLon0.09_PT077H.grib2 2026-04-26 09:02 446K
20260426T06Z_MSC_RDPS_DewPointDepression_IsbL-0950_RLatLon0.09_PT077H.grib2 2026-04-26 09:02 441K
20260426T06Z_MSC_RDPS_DewPointDepression_IsbL-0970_RLatLon0.09_PT077H.grib2 2026-04-26 09:02 432K
20260426T06Z_MSC_RDPS_DewPointDepression_IsbL-0985_RLatLon0.09_PT077H.grib2 2026-04-26 09:02 426K
20260426T06Z_MSC_RDPS_DewPointDepression_IsbL-1000_RLatLon0.09_PT077H.grib2 2026-04-26 09:02 421K
20260426T06Z_MSC_RDPS_DewPointDepression_IsbL-1015_RLatLon0.09_PT077H.grib2 2026-04-26 09:02 415K
20260426T06Z_MSC_RDPS_DewPoint_AGL-2m_RLatLon0.09_PT077H.grib2 2026-04-26 09:02 310K
20260426T06Z_MSC_RDPS_DownwardLongwaveRadiationFlux-Accum_Sfc_RLatLon0.09_PT077H.grib2 2026-04-26 09:02 436K
20260426T06Z_MSC_RDPS_DownwardShortwaveRadiationFlux-Accum_NTAtm_RLatLon0.09_PT077H.grib2 2026-04-26 09:02 162K
20260426T06Z_MSC_RDPS_DownwardShortwaveRadiationFlux-Accum_Sfc_RLatLon0.09_PT077H.grib2 2026-04-26 09:02 632K
20260426T06Z_MSC_RDPS_FreezingRain-Accum1h_Sfc_RLatLon0.09_PT077H.grib2 2026-04-26 09:02 49K
20260426T06Z_MSC_RDPS_FreezingRain-Accum_Sfc_RLatLon0.09_PT077H.grib2 2026-04-26 09:02 230K
20260426T06Z_MSC_RDPS_GeopotentialHeight_IsbL-0001_RLatLon0.09_PT077H.grib2 2026-04-26 09:02 312K
20260426T06Z_MSC_RDPS_GeopotentialHeight_IsbL-0005_RLatLon0.09_PT077H.grib2 2026-04-26 09:02 340K
20260426T06Z_MSC_RDPS_GeopotentialHeight_IsbL-0010_RLatLon0.09_PT077H.grib2 2026-04-26 09:02 308K
20260426T06Z_MSC_RDPS_GeopotentialHeight_IsbL-0020_RLatLon0.09_PT077H.grib2 2026-04-26 09:02 307K
20260426T06Z_MSC_RDPS_GeopotentialHeight_IsbL-0030_RLatLon0.09_PT077H.grib2 2026-04-26 09:02 308K
20260426T06Z_MSC_RDPS_GeopotentialHeight_IsbL-0050_RLatLon0.09_PT077H.grib2 2026-04-26 09:02 342K
20260426T06Z_MSC_RDPS_GeopotentialHeight_IsbL-0100_RLatLon0.09_PT077H.grib2 2026-04-26 09:02 287K
20260426T06Z_MSC_RDPS_GeopotentialHeight_IsbL-0150_RLatLon0.09_PT077H.grib2 2026-04-26 09:02 231K
20260426T06Z_MSC_RDPS_GeopotentialHeight_IsbL-0175_RLatLon0.09_PT077H.grib2 2026-04-26 09:02 266K
20260426T06Z_MSC_RDPS_GeopotentialHeight_IsbL-0200_RLatLon0.09_PT077H.grib2 2026-04-26 09:02 267K
20260426T06Z_MSC_RDPS_GeopotentialHeight_IsbL-0225_RLatLon0.09_PT077H.grib2 2026-04-26 09:02 269K
20260426T06Z_MSC_RDPS_GeopotentialHeight_IsbL-0250_RLatLon0.09_PT077H.grib2 2026-04-26 09:02 269K
20260426T06Z_MSC_RDPS_GeopotentialHeight_IsbL-0275_RLatLon0.09_PT077H.grib2 2026-04-26 09:02 268K
20260426T06Z_MSC_RDPS_GeopotentialHeight_IsbL-0300_RLatLon0.09_PT077H.grib2 2026-04-26 09:02 268K
20260426T06Z_MSC_RDPS_GeopotentialHeight_IsbL-0350_RLatLon0.09_PT077H.grib2 2026-04-26 09:02 232K
20260426T06Z_MSC_RDPS_GeopotentialHeight_IsbL-0400_RLatLon0.09_PT077H.grib2 2026-04-26 09:02 229K
20260426T06Z_MSC_RDPS_GeopotentialHeight_IsbL-0450_RLatLon0.09_PT077H.grib2 2026-04-26 09:02 298K
20260426T06Z_MSC_RDPS_GeopotentialHeight_IsbL-0500_RLatLon0.09_PT077H.grib2 2026-04-26 09:02 292K
20260426T06Z_MSC_RDPS_GeopotentialHeight_IsbL-0550_RLatLon0.09_PT077H.grib2 2026-04-26 09:02 289K
20260426T06Z_MSC_RDPS_GeopotentialHeight_IsbL-0600_RLatLon0.09_PT077H.grib2 2026-04-26 09:02 284K
20260426T06Z_MSC_RDPS_GeopotentialHeight_IsbL-0650_RLatLon0.09_PT077H.grib2 2026-04-26 09:02 254K
20260426T06Z_MSC_RDPS_GeopotentialHeight_IsbL-0700_RLatLon0.09_PT077H.grib2 2026-04-26 09:02 253K
20260426T06Z_MSC_RDPS_GeopotentialHeight_IsbL-0750_RLatLon0.09_PT077H.grib2 2026-04-26 09:02 336K
20260426T06Z_MSC_RDPS_GeopotentialHeight_IsbL-0800_RLatLon0.09_PT077H.grib2 2026-04-26 09:02 345K
20260426T06Z_MSC_RDPS_GeopotentialHeight_IsbL-0850_RLatLon0.09_PT077H.grib2 2026-04-26 09:02 357K
20260426T06Z_MSC_RDPS_GeopotentialHeight_IsbL-0875_RLatLon0.09_PT077H.grib2 2026-04-26 09:02 358K
20260426T06Z_MSC_RDPS_GeopotentialHeight_IsbL-0900_RLatLon0.09_PT077H.grib2 2026-04-26 09:02 363K
20260426T06Z_MSC_RDPS_GeopotentialHeight_IsbL-0925_RLatLon0.09_PT077H.grib2 2026-04-26 09:02 365K
20260426T06Z_MSC_RDPS_GeopotentialHeight_IsbL-0950_RLatLon0.09_PT077H.grib2 2026-04-26 09:02 371K
20260426T06Z_MSC_RDPS_GeopotentialHeight_IsbL-0970_RLatLon0.09_PT077H.grib2 2026-04-26 09:02 376K
20260426T06Z_MSC_RDPS_GeopotentialHeight_IsbL-0985_RLatLon0.09_PT077H.grib2 2026-04-26 09:02 384K
20260426T06Z_MSC_RDPS_GeopotentialHeight_IsbL-1000_RLatLon0.09_PT077H.grib2 2026-04-26 09:02 395K
20260426T06Z_MSC_RDPS_GeopotentialHeight_IsbL-1015_RLatLon0.09_PT077H.grib2 2026-04-26 09:02 409K
20260426T06Z_MSC_RDPS_Humidex_Sfc_RLatLon0.09_PT077H.grib2 2026-04-26 09:02 2.4M
20260426T06Z_MSC_RDPS_IcePellets-Accum1h_Sfc_RLatLon0.09_PT077H.grib2 2026-04-26 09:02 10K
20260426T06Z_MSC_RDPS_IcePellets-Accum_Sfc_RLatLon0.09_PT077H.grib2 2026-04-26 09:02 53K
20260426T06Z_MSC_RDPS_KIndex_Sfc_RLatLon0.09_PT077H.grib2 2026-04-26 09:02 2.5M
20260426T06Z_MSC_RDPS_LatentHeatNetFlux_Sfc_RLatLon0.09_PT077H.grib2 2026-04-26 09:02 410K
20260426T06Z_MSC_RDPS_LiftedIndex-MU-VT_IsbL-0500_RLatLon0.09_PT077H.grib2 2026-04-26 09:02 2.4M
20260426T06Z_MSC_RDPS_NetLongwaveRadiationFlux-Accum_Sfc_RLatLon0.09_PT077H.grib2 2026-04-26 09:02 483K
20260426T06Z_MSC_RDPS_NetShortwaveRadiationFlux-Accum_Sfc_RLatLon0.09_PT077H.grib2 2026-04-26 09:02 635K
20260426T06Z_MSC_RDPS_PlanetaryBoundaryLayerHeight_Sfc_RLatLon0.09_PT077H.grib2 2026-04-26 09:02 1.1M
20260426T06Z_MSC_RDPS_Precip-Accum1h_Sfc_RLatLon0.09_PT077H.grib2 2026-04-26 09:02 1.2M
20260426T06Z_MSC_RDPS_Precip-Accum_Sfc_RLatLon0.09_PT077H.grib2 2026-04-26 09:02 2.2M
20260426T06Z_MSC_RDPS_PrecipRate_Sfc_RLatLon0.09_PT077H.grib2 2026-04-26 09:02 162K
20260426T06Z_MSC_RDPS_PrecipType-Instant_Sfc_RLatLon0.09_PT077H.grib2 2026-04-26 09:02 562K
20260426T06Z_MSC_RDPS_Pressure-Trend3h_Sfc_RLatLon0.09_PT077H.grib2 2026-04-26 09:02 1.2M
20260426T06Z_MSC_RDPS_Pressure_MSL_RLatLon0.09_PT077H.grib2 2026-04-26 09:02 294K
20260426T06Z_MSC_RDPS_Pressure_PVU-1.5_RLatLon0.09_PT077H.grib2 2026-04-26 09:02 2.5M
20260426T06Z_MSC_RDPS_Pressure_PVU-1_RLatLon0.09_PT077H.grib2 2026-04-26 09:02 2.4M
20260426T06Z_MSC_RDPS_Pressure_PVU-2_RLatLon0.09_PT077H.grib2 2026-04-26 09:02 2.4M
20260426T06Z_MSC_RDPS_Pressure_Sfc_RLatLon0.09_PT077H.grib2 2026-04-26 09:02 501K
20260426T06Z_MSC_RDPS_RadiativeTemp_Sfc_RLatLon0.09_PT077H.grib2 2026-04-26 09:02 301K
20260426T06Z_MSC_RDPS_Rain-Accum1h_Sfc_RLatLon0.09_PT077H.grib2 2026-04-26 09:02 515K
20260426T06Z_MSC_RDPS_Rain-Accum_Sfc_RLatLon0.09_PT077H.grib2 2026-04-26 09:02 1.8M
20260426T06Z_MSC_RDPS_RelativeHumidity_AGL-2m_RLatLon0.09_PT077H.grib2 2026-04-26 09:02 1.0M
20260426T06Z_MSC_RDPS_RelativeHumidity_IsbL-0010_RLatLon0.09_PT077H.grib2 2026-04-26 09:02 743K
20260426T06Z_MSC_RDPS_RelativeHumidity_IsbL-0020_RLatLon0.09_PT077H.grib2 2026-04-26 09:02 645K
20260426T06Z_MSC_RDPS_RelativeHumidity_IsbL-0030_RLatLon0.09_PT077H.grib2 2026-04-26 09:02 539K
20260426T06Z_MSC_RDPS_RelativeHumidity_IsbL-0050_RLatLon0.09_PT077H.grib2 2026-04-26 09:02 330K
20260426T06Z_MSC_RDPS_RelativeHumidity_IsbL-0100_RLatLon0.09_PT077H.grib2 2026-04-26 09:02 281K
20260426T06Z_MSC_RDPS_RelativeHumidity_IsbL-0150_RLatLon0.09_PT077H.grib2 2026-04-26 09:02 414K
20260426T06Z_MSC_RDPS_RelativeHumidity_IsbL-0175_RLatLon0.09_PT077H.grib2 2026-04-26 09:02 485K
20260426T06Z_MSC_RDPS_RelativeHumidity_IsbL-0200_RLatLon0.09_PT077H.grib2 2026-04-26 09:02 560K
20260426T06Z_MSC_RDPS_RelativeHumidity_IsbL-0225_RLatLon0.09_PT077H.grib2 2026-04-26 09:02 631K
20260426T06Z_MSC_RDPS_RelativeHumidity_IsbL-0250_RLatLon0.09_PT077H.grib2 2026-04-26 09:02 697K
20260426T06Z_MSC_RDPS_RelativeHumidity_IsbL-0275_RLatLon0.09_PT077H.grib2 2026-04-26 09:02 726K
20260426T06Z_MSC_RDPS_RelativeHumidity_IsbL-0300_RLatLon0.09_PT077H.grib2 2026-04-26 09:02 767K
20260426T06Z_MSC_RDPS_RelativeHumidity_IsbL-0350_RLatLon0.09_PT077H.grib2 2026-04-26 09:02 781K
20260426T06Z_MSC_RDPS_RelativeHumidity_IsbL-0400_RLatLon0.09_PT077H.grib2 2026-04-26 09:02 794K
20260426T06Z_MSC_RDPS_RelativeHumidity_IsbL-0450_RLatLon0.09_PT077H.grib2 2026-04-26 09:02 796K
20260426T06Z_MSC_RDPS_RelativeHumidity_IsbL-0500_RLatLon0.09_PT077H.grib2 2026-04-26 09:02 800K
20260426T06Z_MSC_RDPS_RelativeHumidity_IsbL-0550_RLatLon0.09_PT077H.grib2 2026-04-26 09:02 812K
20260426T06Z_MSC_RDPS_RelativeHumidity_IsbL-0600_RLatLon0.09_PT077H.grib2 2026-04-26 09:02 829K
20260426T06Z_MSC_RDPS_RelativeHumidity_IsbL-0650_RLatLon0.09_PT077H.grib2 2026-04-26 09:02 839K
20260426T06Z_MSC_RDPS_RelativeHumidity_IsbL-0700_RLatLon0.09_PT077H.grib2 2026-04-26 09:02 861K
20260426T06Z_MSC_RDPS_RelativeHumidity_IsbL-0750_RLatLon0.09_PT077H.grib2 2026-04-26 09:02 907K
20260426T06Z_MSC_RDPS_RelativeHumidity_IsbL-0800_RLatLon0.09_PT077H.grib2 2026-04-26 09:02 973K
20260426T06Z_MSC_RDPS_RelativeHumidity_IsbL-0850_RLatLon0.09_PT077H.grib2 2026-04-26 09:02 1.0M
20260426T06Z_MSC_RDPS_RelativeHumidity_IsbL-0875_RLatLon0.09_PT077H.grib2 2026-04-26 09:02 1.1M
20260426T06Z_MSC_RDPS_RelativeHumidity_IsbL-0900_RLatLon0.09_PT077H.grib2 2026-04-26 09:02 1.1M
20260426T06Z_MSC_RDPS_RelativeHumidity_IsbL-0925_RLatLon0.09_PT077H.grib2 2026-04-26 09:02 1.1M
20260426T06Z_MSC_RDPS_RelativeHumidity_IsbL-0950_RLatLon0.09_PT077H.grib2 2026-04-26 09:02 1.1M
20260426T06Z_MSC_RDPS_RelativeHumidity_IsbL-0970_RLatLon0.09_PT077H.grib2 2026-04-26 09:02 1.0M
20260426T06Z_MSC_RDPS_RelativeHumidity_IsbL-0985_RLatLon0.09_PT077H.grib2 2026-04-26 09:02 1.0M
20260426T06Z_MSC_RDPS_RelativeHumidity_IsbL-1000_RLatLon0.09_PT077H.grib2 2026-04-26 09:02 1.0M
20260426T06Z_MSC_RDPS_RelativeHumidity_IsbL-1015_RLatLon0.09_PT077H.grib2 2026-04-26 09:02 1.0M
20260426T06Z_MSC_RDPS_Runoff-Accum_Sfc_RLatLon0.09_PT077H.grib2 2026-04-26 09:02 61K
20260426T06Z_MSC_RDPS_SWEATIndex_Sfc_RLatLon0.09_PT077H.grib2 2026-04-26 09:02 2.4M
20260426T06Z_MSC_RDPS_SeeingIndex_EAtm_RLatLon0.09_PT077H.grib2 2026-04-26 09:02 1.0M
20260426T06Z_MSC_RDPS_SensibleHeatNetFlux_Sfc_RLatLon0.09_PT077H.grib2 2026-04-26 09:02 298K
20260426T06Z_MSC_RDPS_ShowalterIndex_IsbL-0500_RLatLon0.09_PT077H.grib2 2026-04-26 09:02 2.6M
20260426T06Z_MSC_RDPS_SkyTransparencyIndex_EAtm_RLatLon0.09_PT077H.grib2 2026-04-26 09:02 696K
20260426T06Z_MSC_RDPS_Snow-Accum1h_Sfc_RLatLon0.09_PT077H.grib2 2026-04-26 09:02 551K
20260426T06Z_MSC_RDPS_Snow-Accum_Sfc_RLatLon0.09_PT077H.grib2 2026-04-26 09:02 883K
20260426T06Z_MSC_RDPS_SnowDensity_Sfc_RLatLon0.09_PT077H.grib2 2026-04-26 09:02 187K
20260426T06Z_MSC_RDPS_SnowDepth_Sfc_RLatLon0.09_PT077H.grib2 2026-04-26 09:02 710K
20260426T06Z_MSC_RDPS_SoilTemp_DBS-0to10cm_RLatLon0.09_PT077H.grib2 2026-04-26 09:02 238K
20260426T06Z_MSC_RDPS_SoilTemp_Sfc_RLatLon0.09_PT077H.grib2 2026-04-26 09:02 268K
20260426T06Z_MSC_RDPS_SoilVolumetricIceContent_Sfc_RLatLon0.09_PT077H.grib2 2026-04-26 09:02 167K
20260426T06Z_MSC_RDPS_SoilVolumetricWaterContent_DBS-0to10cm_RLatLon0.09_PT077H.grib2 2026-04-26 09:02 266K
20260426T06Z_MSC_RDPS_SoilVolumetricWaterContent_DBS-0to1cm_RLatLon0.09_PT077H.grib2 2026-04-26 09:02 340K
20260426T06Z_MSC_RDPS_SpecificHumidity_AGL-120m_RLatLon0.09_PT077H.grib2 2026-04-26 09:02 484K
20260426T06Z_MSC_RDPS_SpecificHumidity_AGL-2m_RLatLon0.09_PT077H.grib2 2026-04-26 09:02 650K
20260426T06Z_MSC_RDPS_SpecificHumidity_AGL-40m_RLatLon0.09_PT077H.grib2 2026-04-26 09:02 490K
20260426T06Z_MSC_RDPS_SpecificHumidity_AGL-80m_RLatLon0.09_PT077H.grib2 2026-04-26 09:02 485K
20260426T06Z_MSC_RDPS_SpecificHumidity_IsbL-0001_RLatLon0.09_PT077H.grib2 2026-04-26 09:02 335K
20260426T06Z_MSC_RDPS_SpecificHumidity_IsbL-0005_RLatLon0.09_PT077H.grib2 2026-04-26 09:02 346K
20260426T06Z_MSC_RDPS_SpecificHumidity_IsbL-0010_RLatLon0.09_PT077H.grib2 2026-04-26 09:02 386K
20260426T06Z_MSC_RDPS_SpecificHumidity_IsbL-0020_RLatLon0.09_PT077H.grib2 2026-04-26 09:02 376K
20260426T06Z_MSC_RDPS_SpecificHumidity_IsbL-0030_RLatLon0.09_PT077H.grib2 2026-04-26 09:02 434K
20260426T06Z_MSC_RDPS_SpecificHumidity_IsbL-0050_RLatLon0.09_PT077H.grib2 2026-04-26 09:02 477K
20260426T06Z_MSC_RDPS_SpecificHumidity_IsbL-0100_RLatLon0.09_PT077H.grib2 2026-04-26 09:02 444K
20260426T06Z_MSC_RDPS_SpecificHumidity_IsbL-0150_RLatLon0.09_PT077H.grib2 2026-04-26 09:02 481K
20260426T06Z_MSC_RDPS_SpecificHumidity_IsbL-0175_RLatLon0.09_PT077H.grib2 2026-04-26 09:02 438K
20260426T06Z_MSC_RDPS_SpecificHumidity_IsbL-0200_RLatLon0.09_PT077H.grib2 2026-04-26 09:02 454K
20260426T06Z_MSC_RDPS_SpecificHumidity_IsbL-0225_RLatLon0.09_PT077H.grib2 2026-04-26 09:02 460K
20260426T06Z_MSC_RDPS_SpecificHumidity_IsbL-0250_RLatLon0.09_PT077H.grib2 2026-04-26 09:02 517K
20260426T06Z_MSC_RDPS_SpecificHumidity_IsbL-0275_RLatLon0.09_PT077H.grib2 2026-04-26 09:02 476K
20260426T06Z_MSC_RDPS_SpecificHumidity_IsbL-0300_RLatLon0.09_PT077H.grib2 2026-04-26 09:02 572K
20260426T06Z_MSC_RDPS_SpecificHumidity_IsbL-0350_RLatLon0.09_PT077H.grib2 2026-04-26 09:02 561K
20260426T06Z_MSC_RDPS_SpecificHumidity_IsbL-0400_RLatLon0.09_PT077H.grib2 2026-04-26 09:02 515K
20260426T06Z_MSC_RDPS_SpecificHumidity_IsbL-0450_RLatLon0.09_PT077H.grib2 2026-04-26 09:02 565K
20260426T06Z_MSC_RDPS_SpecificHumidity_IsbL-0500_RLatLon0.09_PT077H.grib2 2026-04-26 09:02 501K
20260426T06Z_MSC_RDPS_SpecificHumidity_IsbL-0550_RLatLon0.09_PT077H.grib2 2026-04-26 09:02 572K
20260426T06Z_MSC_RDPS_SpecificHumidity_IsbL-0600_RLatLon0.09_PT077H.grib2 2026-04-26 09:02 624K
20260426T06Z_MSC_RDPS_SpecificHumidity_IsbL-0650_RLatLon0.09_PT077H.grib2 2026-04-26 09:02 542K
20260426T06Z_MSC_RDPS_SpecificHumidity_IsbL-0700_RLatLon0.09_PT077H.grib2 2026-04-26 09:02 582K
20260426T06Z_MSC_RDPS_SpecificHumidity_IsbL-0750_RLatLon0.09_PT077H.grib2 2026-04-26 09:02 636K
20260426T06Z_MSC_RDPS_SpecificHumidity_IsbL-0800_RLatLon0.09_PT077H.grib2 2026-04-26 09:02 716K
20260426T06Z_MSC_RDPS_SpecificHumidity_IsbL-0850_RLatLon0.09_PT077H.grib2 2026-04-26 09:02 792K
20260426T06Z_MSC_RDPS_SpecificHumidity_IsbL-0875_RLatLon0.09_PT077H.grib2 2026-04-26 09:02 820K
20260426T06Z_MSC_RDPS_SpecificHumidity_IsbL-0900_RLatLon0.09_PT077H.grib2 2026-04-26 09:02 832K
20260426T06Z_MSC_RDPS_SpecificHumidity_IsbL-0925_RLatLon0.09_PT077H.grib2 2026-04-26 09:02 831K
20260426T06Z_MSC_RDPS_SpecificHumidity_IsbL-0950_RLatLon0.09_PT077H.grib2 2026-04-26 09:02 832K
20260426T06Z_MSC_RDPS_SpecificHumidity_IsbL-0970_RLatLon0.09_PT077H.grib2 2026-04-26 09:02 822K
20260426T06Z_MSC_RDPS_SpecificHumidity_IsbL-0985_RLatLon0.09_PT077H.grib2 2026-04-26 09:02 814K
20260426T06Z_MSC_RDPS_SpecificHumidity_IsbL-1000_RLatLon0.09_PT077H.grib2 2026-04-26 09:02 668K
20260426T06Z_MSC_RDPS_SpecificHumidity_IsbL-1015_RLatLon0.09_PT077H.grib2 2026-04-26 09:02 660K
20260426T06Z_MSC_RDPS_SpecificHumidity_Sfc_RLatLon0.09_PT077H.grib2 2026-04-26 09:02 288K
20260426T06Z_MSC_RDPS_StormRelativeHelicity_EtaL-10000_RLatLon0.09_PT077H.grib2 2026-04-26 09:02 1.1M
20260426T06Z_MSC_RDPS_StormSeverityIndex_EtaL-10000_RLatLon0.09_PT077H.grib2 2026-04-26 09:02 1.2M
20260426T06Z_MSC_RDPS_Thickness_IsbL-0850to0700_RLatLon0.09_PT077H.grib2 2026-04-26 09:02 177K
20260426T06Z_MSC_RDPS_Thickness_IsbL-1000to0500_RLatLon0.09_PT077H.grib2 2026-04-26 09:02 201K
20260426T06Z_MSC_RDPS_Thickness_IsbL-1000to0850_RLatLon0.09_PT077H.grib2 2026-04-26 09:02 262K
20260426T06Z_MSC_RDPS_TotalCloudCover_Sfc_RLatLon0.09_PT077H.grib2 2026-04-26 09:02 667K
20260426T06Z_MSC_RDPS_TotalTotalsIndex_Sfc_RLatLon0.09_PT077H.grib2 2026-04-26 09:02 2.4M
20260426T06Z_MSC_RDPS_UVIndex-ClearSky_Sfc_RLatLon0.09_PT077H.grib2 2026-04-26 09:02 116K
20260426T06Z_MSC_RDPS_UVIndex_Sfc_RLatLon0.09_PT077H.grib2 2026-04-26 09:02 258K
20260426T06Z_MSC_RDPS_UpwardLongwaveRadiationFlux_NTAtm_RLatLon0.09_PT077H.grib2 2026-04-26 09:02 492K
20260426T06Z_MSC_RDPS_UpwardShortwaveRadiationFlux_NTAtm_RLatLon0.09_PT077H.grib2 2026-04-26 09:02 243K
20260426T06Z_MSC_RDPS_VerticalVelocity_IsbL-0250_RLatLon0.09_PT077H.grib2 2026-04-26 09:02 587K
20260426T06Z_MSC_RDPS_VerticalVelocity_IsbL-0500_RLatLon0.09_PT077H.grib2 2026-04-26 09:02 547K
20260426T06Z_MSC_RDPS_VerticalVelocity_IsbL-0700_RLatLon0.09_PT077H.grib2 2026-04-26 09:02 588K
20260426T06Z_MSC_RDPS_VerticalVelocity_IsbL-0850_RLatLon0.09_PT077H.grib2 2026-04-26 09:02 643K
20260426T06Z_MSC_RDPS_VerticalWindShear_EtaL-6500_RLatLon0.09_PT077H.grib2 2026-04-26 09:02 1.1M
20260426T06Z_MSC_RDPS_WindChill_Sfc_RLatLon0.09_PT077H.grib2 2026-04-26 09:02 1.1M
20260426T06Z_MSC_RDPS_WindDir_AGL-10m_RLatLon0.09_PT077H.grib2 2026-04-26 09:02 1.0M
20260426T06Z_MSC_RDPS_WindDir_AGL-120m_RLatLon0.09_PT077H.grib2 2026-04-26 09:02 611K
20260426T06Z_MSC_RDPS_WindDir_AGL-40m_RLatLon0.09_PT077H.grib2 2026-04-26 09:02 642K
20260426T06Z_MSC_RDPS_WindDir_AGL-80m_RLatLon0.09_PT077H.grib2 2026-04-26 09:02 623K
20260426T06Z_MSC_RDPS_WindDir_IsbL-0001_RLatLon0.09_PT077H.grib2 2026-04-26 09:02 311K
20260426T06Z_MSC_RDPS_WindDir_IsbL-0005_RLatLon0.09_PT077H.grib2 2026-04-26 09:02 370K
20260426T06Z_MSC_RDPS_WindDir_IsbL-0010_RLatLon0.09_PT077H.grib2 2026-04-26 09:02 368K
20260426T06Z_MSC_RDPS_WindDir_IsbL-0020_RLatLon0.09_PT077H.grib2 2026-04-26 09:02 397K
20260426T06Z_MSC_RDPS_WindDir_IsbL-0030_RLatLon0.09_PT077H.grib2 2026-04-26 09:02 423K
20260426T06Z_MSC_RDPS_WindDir_IsbL-0050_RLatLon0.09_PT077H.grib2 2026-04-26 09:02 427K
20260426T06Z_MSC_RDPS_WindDir_IsbL-0100_RLatLon0.09_PT077H.grib2 2026-04-26 09:02 412K
20260426T06Z_MSC_RDPS_WindDir_IsbL-0150_RLatLon0.09_PT077H.grib2 2026-04-26 09:02 408K
20260426T06Z_MSC_RDPS_WindDir_IsbL-0175_RLatLon0.09_PT077H.grib2 2026-04-26 09:02 430K
20260426T06Z_MSC_RDPS_WindDir_IsbL-0200_RLatLon0.09_PT077H.grib2 2026-04-26 09:02 443K
20260426T06Z_MSC_RDPS_WindDir_IsbL-0225_RLatLon0.09_PT077H.grib2 2026-04-26 09:02 448K
20260426T06Z_MSC_RDPS_WindDir_IsbL-0250_RLatLon0.09_PT077H.grib2 2026-04-26 09:02 452K
20260426T06Z_MSC_RDPS_WindDir_IsbL-0275_RLatLon0.09_PT077H.grib2 2026-04-26 09:02 473K
20260426T06Z_MSC_RDPS_WindDir_IsbL-0300_RLatLon0.09_PT077H.grib2 2026-04-26 09:02 472K
20260426T06Z_MSC_RDPS_WindDir_IsbL-0350_RLatLon0.09_PT077H.grib2 2026-04-26 09:02 489K
20260426T06Z_MSC_RDPS_WindDir_IsbL-0400_RLatLon0.09_PT077H.grib2 2026-04-26 09:02 507K
20260426T06Z_MSC_RDPS_WindDir_IsbL-0450_RLatLon0.09_PT077H.grib2 2026-04-26 09:02 521K
20260426T06Z_MSC_RDPS_WindDir_IsbL-0500_RLatLon0.09_PT077H.grib2 2026-04-26 09:02 535K
20260426T06Z_MSC_RDPS_WindDir_IsbL-0550_RLatLon0.09_PT077H.grib2 2026-04-26 09:02 553K
20260426T06Z_MSC_RDPS_WindDir_IsbL-0600_RLatLon0.09_PT077H.grib2 2026-04-26 09:02 583K
20260426T06Z_MSC_RDPS_WindDir_IsbL-0650_RLatLon0.09_PT077H.grib2 2026-04-26 09:02 613K
20260426T06Z_MSC_RDPS_WindDir_IsbL-0700_RLatLon0.09_PT077H.grib2 2026-04-26 09:02 651K
20260426T06Z_MSC_RDPS_WindDir_IsbL-0750_RLatLon0.09_PT077H.grib2 2026-04-26 09:02 700K
20260426T06Z_MSC_RDPS_WindDir_IsbL-0800_RLatLon0.09_PT077H.grib2 2026-04-26 09:02 771K
20260426T06Z_MSC_RDPS_WindDir_IsbL-0850_RLatLon0.09_PT077H.grib2 2026-04-26 09:02 852K
20260426T06Z_MSC_RDPS_WindDir_IsbL-0875_RLatLon0.09_PT077H.grib2 2026-04-26 09:02 885K
20260426T06Z_MSC_RDPS_WindDir_IsbL-0900_RLatLon0.09_PT077H.grib2 2026-04-26 09:02 904K
20260426T06Z_MSC_RDPS_WindDir_IsbL-0925_RLatLon0.09_PT077H.grib2 2026-04-26 09:02 915K
20260426T06Z_MSC_RDPS_WindDir_IsbL-0950_RLatLon0.09_PT077H.grib2 2026-04-26 09:02 916K
20260426T06Z_MSC_RDPS_WindDir_IsbL-0970_RLatLon0.09_PT077H.grib2 2026-04-26 09:02 926K
20260426T06Z_MSC_RDPS_WindDir_IsbL-0985_RLatLon0.09_PT077H.grib2 2026-04-26 09:02 936K
20260426T06Z_MSC_RDPS_WindDir_IsbL-1000_RLatLon0.09_PT077H.grib2 2026-04-26 09:02 951K
20260426T06Z_MSC_RDPS_WindDir_IsbL-1015_RLatLon0.09_PT077H.grib2 2026-04-26 09:02 969K
20260426T06Z_MSC_RDPS_WindGust-Max_AGL-10m_RLatLon0.09_PT077H.grib2 2026-04-26 09:02 955K
20260426T06Z_MSC_RDPS_WindGust-Min_AGL-10m_RLatLon0.09_PT077H.grib2 2026-04-26 09:02 972K
20260426T06Z_MSC_RDPS_WindGust_AGL-10m_RLatLon0.09_PT077H.grib2 2026-04-26 09:02 1.0M
20260426T06Z_MSC_RDPS_WindSpeed_AGL-10m_RLatLon0.09_PT077H.grib2 2026-04-26 09:02 846K
20260426T06Z_MSC_RDPS_WindSpeed_AGL-120m_RLatLon0.09_PT077H.grib2 2026-04-26 09:02 553K
20260426T06Z_MSC_RDPS_WindSpeed_AGL-40m_RLatLon0.09_PT077H.grib2 2026-04-26 09:02 555K
20260426T06Z_MSC_RDPS_WindSpeed_AGL-80m_RLatLon0.09_PT077H.grib2 2026-04-26 09:02 554K
20260426T06Z_MSC_RDPS_WindSpeed_IsbL-0001_RLatLon0.09_PT077H.grib2 2026-04-26 09:02 255K
20260426T06Z_MSC_RDPS_WindSpeed_IsbL-0005_RLatLon0.09_PT077H.grib2 2026-04-26 09:02 299K
20260426T06Z_MSC_RDPS_WindSpeed_IsbL-0010_RLatLon0.09_PT077H.grib2 2026-04-26 09:02 311K
20260426T06Z_MSC_RDPS_WindSpeed_IsbL-0020_RLatLon0.09_PT077H.grib2 2026-04-26 09:02 327K
20260426T06Z_MSC_RDPS_WindSpeed_IsbL-0030_RLatLon0.09_PT077H.grib2 2026-04-26 09:02 322K
20260426T06Z_MSC_RDPS_WindSpeed_IsbL-0050_RLatLon0.09_PT077H.grib2 2026-04-26 09:02 461K
20260426T06Z_MSC_RDPS_WindSpeed_IsbL-0100_RLatLon0.09_PT077H.grib2 2026-04-26 09:02 485K
20260426T06Z_MSC_RDPS_WindSpeed_IsbL-0150_RLatLon0.09_PT077H.grib2 2026-04-26 09:02 385K
20260426T06Z_MSC_RDPS_WindSpeed_IsbL-0175_RLatLon0.09_PT077H.grib2 2026-04-26 09:02 434K
20260426T06Z_MSC_RDPS_WindSpeed_IsbL-0200_RLatLon0.09_PT077H.grib2 2026-04-26 09:02 451K
20260426T06Z_MSC_RDPS_WindSpeed_IsbL-0225_RLatLon0.09_PT077H.grib2 2026-04-26 09:02 459K
20260426T06Z_MSC_RDPS_WindSpeed_IsbL-0250_RLatLon0.09_PT077H.grib2 2026-04-26 09:02 464K
20260426T06Z_MSC_RDPS_WindSpeed_IsbL-0275_RLatLon0.09_PT077H.grib2 2026-04-26 09:02 482K
20260426T06Z_MSC_RDPS_WindSpeed_IsbL-0300_RLatLon0.09_PT077H.grib2 2026-04-26 09:02 480K
20260426T06Z_MSC_RDPS_WindSpeed_IsbL-0350_RLatLon0.09_PT077H.grib2 2026-04-26 09:02 470K
20260426T06Z_MSC_RDPS_WindSpeed_IsbL-0400_RLatLon0.09_PT077H.grib2 2026-04-26 09:02 469K
20260426T06Z_MSC_RDPS_WindSpeed_IsbL-0450_RLatLon0.09_PT077H.grib2 2026-04-26 09:02 467K
20260426T06Z_MSC_RDPS_WindSpeed_IsbL-0500_RLatLon0.09_PT077H.grib2 2026-04-26 09:02 466K
20260426T06Z_MSC_RDPS_WindSpeed_IsbL-0550_RLatLon0.09_PT077H.grib2 2026-04-26 09:02 465K
20260426T06Z_MSC_RDPS_WindSpeed_IsbL-0600_RLatLon0.09_PT077H.grib2 2026-04-26 09:02 589K
20260426T06Z_MSC_RDPS_WindSpeed_IsbL-0650_RLatLon0.09_PT077H.grib2 2026-04-26 09:02 606K
20260426T06Z_MSC_RDPS_WindSpeed_IsbL-0700_RLatLon0.09_PT077H.grib2 2026-04-26 09:02 627K
20260426T06Z_MSC_RDPS_WindSpeed_IsbL-0750_RLatLon0.09_PT077H.grib2 2026-04-26 09:02 654K
20260426T06Z_MSC_RDPS_WindSpeed_IsbL-0800_RLatLon0.09_PT077H.grib2 2026-04-26 09:02 747K
20260426T06Z_MSC_RDPS_WindSpeed_IsbL-0850_RLatLon0.09_PT077H.grib2 2026-04-26 09:02 765K
20260426T06Z_MSC_RDPS_WindSpeed_IsbL-0875_RLatLon0.09_PT077H.grib2 2026-04-26 09:02 789K
20260426T06Z_MSC_RDPS_WindSpeed_IsbL-0900_RLatLon0.09_PT077H.grib2 2026-04-26 09:02 804K
20260426T06Z_MSC_RDPS_WindSpeed_IsbL-0925_RLatLon0.09_PT077H.grib2 2026-04-26 09:02 861K
20260426T06Z_MSC_RDPS_WindSpeed_IsbL-0950_RLatLon0.09_PT077H.grib2 2026-04-26 09:02 862K
20260426T06Z_MSC_RDPS_WindSpeed_IsbL-0970_RLatLon0.09_PT077H.grib2 2026-04-26 09:02 863K
20260426T06Z_MSC_RDPS_WindSpeed_IsbL-0985_RLatLon0.09_PT077H.grib2 2026-04-26 09:02 858K
20260426T06Z_MSC_RDPS_WindSpeed_IsbL-1000_RLatLon0.09_PT077H.grib2 2026-04-26 09:02 854K
20260426T06Z_MSC_RDPS_WindSpeed_IsbL-1015_RLatLon0.09_PT077H.grib2 2026-04-26 09:02 845K
20260426T06Z_MSC_RDPS_WindU_AGL-10m_RLatLon0.09_PT077H.grib2 2026-04-26 09:02 382K
20260426T06Z_MSC_RDPS_WindU_AGL-120m_RLatLon0.09_PT077H.grib2 2026-04-26 09:02 421K
20260426T06Z_MSC_RDPS_WindU_AGL-40m_RLatLon0.09_PT077H.grib2 2026-04-26 09:02 423K
20260426T06Z_MSC_RDPS_WindU_AGL-80m_RLatLon0.09_PT077H.grib2 2026-04-26 09:02 422K
20260426T06Z_MSC_RDPS_WindU_IsbL-0001_RLatLon0.09_PT077H.grib2 2026-04-26 09:02 296K
20260426T06Z_MSC_RDPS_WindU_IsbL-0005_RLatLon0.09_PT077H.grib2 2026-04-26 09:02 334K
20260426T06Z_MSC_RDPS_WindU_IsbL-0010_RLatLon0.09_PT077H.grib2 2026-04-26 09:02 302K
20260426T06Z_MSC_RDPS_WindU_IsbL-0020_RLatLon0.09_PT077H.grib2 2026-04-26 09:02 358K
20260426T06Z_MSC_RDPS_WindU_IsbL-0030_RLatLon0.09_PT077H.grib2 2026-04-26 09:02 316K
20260426T06Z_MSC_RDPS_WindU_IsbL-0050_RLatLon0.09_PT077H.grib2 2026-04-26 09:02 349K
20260426T06Z_MSC_RDPS_WindU_IsbL-0100_RLatLon0.09_PT077H.grib2 2026-04-26 09:02 439K
20260426T06Z_MSC_RDPS_WindU_IsbL-0150_RLatLon0.09_PT077H.grib2 2026-04-26 09:02 402K
20260426T06Z_MSC_RDPS_WindU_IsbL-0175_RLatLon0.09_PT077H.grib2 2026-04-26 09:02 427K
20260426T06Z_MSC_RDPS_WindU_IsbL-0200_RLatLon0.09_PT077H.grib2 2026-04-26 09:02 443K
20260426T06Z_MSC_RDPS_WindU_IsbL-0225_RLatLon0.09_PT077H.grib2 2026-04-26 09:02 450K
20260426T06Z_MSC_RDPS_WindU_IsbL-0250_RLatLon0.09_PT077H.grib2 2026-04-26 09:02 352K
20260426T06Z_MSC_RDPS_WindU_IsbL-0275_RLatLon0.09_PT077H.grib2 2026-04-26 09:02 367K
20260426T06Z_MSC_RDPS_WindU_IsbL-0300_RLatLon0.09_PT077H.grib2 2026-04-26 09:02 363K
20260426T06Z_MSC_RDPS_WindU_IsbL-0350_RLatLon0.09_PT077H.grib2 2026-04-26 09:02 473K
20260426T06Z_MSC_RDPS_WindU_IsbL-0400_RLatLon0.09_PT077H.grib2 2026-04-26 09:02 472K
20260426T06Z_MSC_RDPS_WindU_IsbL-0450_RLatLon0.09_PT077H.grib2 2026-04-26 09:02 471K
20260426T06Z_MSC_RDPS_WindU_IsbL-0500_RLatLon0.09_PT077H.grib2 2026-04-26 09:02 470K
20260426T06Z_MSC_RDPS_WindU_IsbL-0550_RLatLon0.09_PT077H.grib2 2026-04-26 09:02 469K
20260426T06Z_MSC_RDPS_WindU_IsbL-0600_RLatLon0.09_PT077H.grib2 2026-04-26 09:02 458K
20260426T06Z_MSC_RDPS_WindU_IsbL-0650_RLatLon0.09_PT077H.grib2 2026-04-26 09:02 475K
20260426T06Z_MSC_RDPS_WindU_IsbL-0700_RLatLon0.09_PT077H.grib2 2026-04-26 09:02 495K
20260426T06Z_MSC_RDPS_WindU_IsbL-0750_RLatLon0.09_PT077H.grib2 2026-04-26 09:02 520K
20260426T06Z_MSC_RDPS_WindU_IsbL-0800_RLatLon0.09_PT077H.grib2 2026-04-26 09:02 564K
20260426T06Z_MSC_RDPS_WindU_IsbL-0850_RLatLon0.09_PT077H.grib2 2026-04-26 09:02 631K
20260426T06Z_MSC_RDPS_WindU_IsbL-0875_RLatLon0.09_PT077H.grib2 2026-04-26 09:02 650K
20260426T06Z_MSC_RDPS_WindU_IsbL-0900_RLatLon0.09_PT077H.grib2 2026-04-26 09:02 661K
20260426T06Z_MSC_RDPS_WindU_IsbL-0925_RLatLon0.09_PT077H.grib2 2026-04-26 09:02 666K
20260426T06Z_MSC_RDPS_WindU_IsbL-0950_RLatLon0.09_PT077H.grib2 2026-04-26 09:02 657K
20260426T06Z_MSC_RDPS_WindU_IsbL-0970_RLatLon0.09_PT077H.grib2 2026-04-26 09:02 655K
20260426T06Z_MSC_RDPS_WindU_IsbL-0985_RLatLon0.09_PT077H.grib2 2026-04-26 09:02 650K
20260426T06Z_MSC_RDPS_WindU_IsbL-1000_RLatLon0.09_PT077H.grib2 2026-04-26 09:02 647K
20260426T06Z_MSC_RDPS_WindU_IsbL-1015_RLatLon0.09_PT077H.grib2 2026-04-26 09:02 642K
20260426T06Z_MSC_RDPS_WindV_AGL-10m_RLatLon0.09_PT077H.grib2 2026-04-26 09:02 433K
20260426T06Z_MSC_RDPS_WindV_AGL-120m_RLatLon0.09_PT077H.grib2 2026-04-26 09:02 536K
20260426T06Z_MSC_RDPS_WindV_AGL-40m_RLatLon0.09_PT077H.grib2 2026-04-26 09:02 539K
20260426T06Z_MSC_RDPS_WindV_AGL-80m_RLatLon0.09_PT077H.grib2 2026-04-26 09:02 537K
20260426T06Z_MSC_RDPS_WindV_IsbL-0001_RLatLon0.09_PT077H.grib2 2026-04-26 09:02 247K
20260426T06Z_MSC_RDPS_WindV_IsbL-0005_RLatLon0.09_PT077H.grib2 2026-04-26 09:02 291K
20260426T06Z_MSC_RDPS_WindV_IsbL-0010_RLatLon0.09_PT077H.grib2 2026-04-26 09:02 302K
20260426T06Z_MSC_RDPS_WindV_IsbL-0020_RLatLon0.09_PT077H.grib2 2026-04-26 09:02 320K
20260426T06Z_MSC_RDPS_WindV_IsbL-0030_RLatLon0.09_PT077H.grib2 2026-04-26 09:02 316K
20260426T06Z_MSC_RDPS_WindV_IsbL-0050_RLatLon0.09_PT077H.grib2 2026-04-26 09:02 348K
20260426T06Z_MSC_RDPS_WindV_IsbL-0100_RLatLon0.09_PT077H.grib2 2026-04-26 09:02 336K
20260426T06Z_MSC_RDPS_WindV_IsbL-0150_RLatLon0.09_PT077H.grib2 2026-04-26 09:02 398K
20260426T06Z_MSC_RDPS_WindV_IsbL-0175_RLatLon0.09_PT077H.grib2 2026-04-26 09:02 329K
20260426T06Z_MSC_RDPS_WindV_IsbL-0200_RLatLon0.09_PT077H.grib2 2026-04-26 09:02 343K
20260426T06Z_MSC_RDPS_WindV_IsbL-0225_RLatLon0.09_PT077H.grib2 2026-04-26 09:02 373K
20260426T06Z_MSC_RDPS_WindV_IsbL-0250_RLatLon0.09_PT077H.grib2 2026-04-26 09:02 376K
20260426T06Z_MSC_RDPS_WindV_IsbL-0275_RLatLon0.09_PT077H.grib2 2026-04-26 09:02 390K
20260426T06Z_MSC_RDPS_WindV_IsbL-0300_RLatLon0.09_PT077H.grib2 2026-04-26 09:02 386K
20260426T06Z_MSC_RDPS_WindV_IsbL-0350_RLatLon0.09_PT077H.grib2 2026-04-26 09:02 369K
20260426T06Z_MSC_RDPS_WindV_IsbL-0400_RLatLon0.09_PT077H.grib2 2026-04-26 09:02 473K
20260426T06Z_MSC_RDPS_WindV_IsbL-0450_RLatLon0.09_PT077H.grib2 2026-04-26 09:02 472K
20260426T06Z_MSC_RDPS_WindV_IsbL-0500_RLatLon0.09_PT077H.grib2 2026-04-26 09:02 470K
20260426T06Z_MSC_RDPS_WindV_IsbL-0550_RLatLon0.09_PT077H.grib2 2026-04-26 09:02 469K
20260426T06Z_MSC_RDPS_WindV_IsbL-0600_RLatLon0.09_PT077H.grib2 2026-04-26 09:02 475K
20260426T06Z_MSC_RDPS_WindV_IsbL-0650_RLatLon0.09_PT077H.grib2 2026-04-26 09:02 489K
20260426T06Z_MSC_RDPS_WindV_IsbL-0700_RLatLon0.09_PT077H.grib2 2026-04-26 09:02 506K
20260426T06Z_MSC_RDPS_WindV_IsbL-0750_RLatLon0.09_PT077H.grib2 2026-04-26 09:02 530K
20260426T06Z_MSC_RDPS_WindV_IsbL-0800_RLatLon0.09_PT077H.grib2 2026-04-26 09:02 572K
20260426T06Z_MSC_RDPS_WindV_IsbL-0850_RLatLon0.09_PT077H.grib2 2026-04-26 09:02 626K
20260426T06Z_MSC_RDPS_WindV_IsbL-0875_RLatLon0.09_PT077H.grib2 2026-04-26 09:02 637K
20260426T06Z_MSC_RDPS_WindV_IsbL-0900_RLatLon0.09_PT077H.grib2 2026-04-26 09:02 650K
20260426T06Z_MSC_RDPS_WindV_IsbL-0925_RLatLon0.09_PT077H.grib2 2026-04-26 09:02 657K
20260426T06Z_MSC_RDPS_WindV_IsbL-0950_RLatLon0.09_PT077H.grib2 2026-04-26 09:02 656K
20260426T06Z_MSC_RDPS_WindV_IsbL-0970_RLatLon0.09_PT077H.grib2 2026-04-26 09:02 797K
20260426T06Z_MSC_RDPS_WindV_IsbL-0985_RLatLon0.09_PT077H.grib2 2026-04-26 09:02 792K
20260426T06Z_MSC_RDPS_WindV_IsbL-1000_RLatLon0.09_PT077H.grib2 2026-04-26 09:02 786K
20260426T06Z_MSC_RDPS_WindV_IsbL-1015_RLatLon0.09_PT077H.grib2 2026-04-26 09:02 825K